Regional Weather Roundup
Issued by NWS New Orleans/Baton Rouge, LA

Home | Current Version | Previous Version | Text Only | Print | Product List | Glossary On
Versions: 1 2 3 4 5 6 7 8 9 10 11 12 13 14 15 16 17 18 19 20 21 22 23 24 25 26 27 28 29 30 31 32 33 34 35 36 37 38 39 40 41 42 43 44 45 46 47 48 49 50
000
ASUS44 KLIX 251113
RWRLIX
NEW ORLEANS REGIONAL WEATHER ROUNDUP
NATIONAL WEATHER SERVICE NEW ORLEANS LA
500 AM CST SAT FEB 25 2017

NOTE: "FAIR" INDICATES FEW OR NO CLOUDS BELOW 12,000 FEET WITH NO
      SIGNIFICANT WEATHER AND/OR OBSTRUCTIONS TO VISIBILITY.
      SKY/WX - SKY CONDITION AND SIGNIFICANT WEATHER.
      TMP - AIR TEMPERATURE.     DP    - DEWPOINT TEMPERATURE.
      RH  - RELATIVE HUMIDITY.   PRES  - PRESSURE.
      HI  - HEAT INDEX.          WCI   - WIND CHILL INDEX.

*  THESE STATIONS ARE NOT NWS OR FAA STATIONS AND ARE NOT UNDER
   NWS QUALITY CONTROL.

LAZ038-040-048-061>063-065>067-069-251200-
SOUTHEAST LOUISIANA

CITY           SKY/WX    TMP DP  RH WIND       PRES   REMARKS
N.O. AUDUBON   NOT AVBL
N.O. INTL ARPT PTCLDY    63  42  46 N13G23    29.95R
N.O. LAKEFRONT CLOUDY    64  51  62 N18G25    29.95R
N.O. DOWNTOWN*   N/A     64  47  53 N8        29.95R
RESERVE*         N/A     61  38  43 N13G22    29.96R
SLIDELL        MOCLDY    61  45  55 N9        29.94R
BATON ROUGE    CLEAR     58  39  49 N7        29.97R
BOOTHVILLE     MOCLDY    64  61  90 N16G23    29.90R
BELLE CHASSE   CLEAR     63  48  58 N12G20    29.93R
BOGALUSA*      PTSUNNY   60  37  43 N6        29.97R
GALLIANO*      SUNNY     61  50  67 N15G22    29.93R
NEW ROADS*       N/A     53  37  55 N7        29.99R
GONZALES*        N/A     60  41  50 N7        29.96R
HAMMOND*       CLEAR     55  30  38 N8        29.97R
HOUMA*         PTCLDY    61  49  64 N17       29.94R
PORT FOURCHON* MOSUNNY   66  57  72 N17G26    29.92R

$$

MSZ070-080>082-251200-
SOUTHERN MISSISSIPPI

CITY           SKY/WX    TMP DP  RH WIND       PRES   REMARKS
MCCOMB         CLEAR     53  25  33 N6        29.97R
GULFPORT       MOCLDY    63  51  65 N13G24    29.91R
BILOXI         PTCLDY    63  45  51 N10G16    29.91R
PASCAGOULA     PTCLDY    64  53  67 N9G20     29.90R

$$

COASTAL OBSERVATIONS
LAKE AND NEARSHORE STATIONS

STATION/POSITION TIME  TEMP    WIND        PRES    WAVE
                       AIR SEA DIR/SP/G            HT/PER
                 (UTC) (F)     (DEG/KT/KT) (MB)    (FT/S)
PASCAGOULA       1048   65     340/ 13/ 18 1011.8
WAVELAND YACHT   1048   64 68  350/ 20/ 24 1013.0
GRAND ISLE       1048   67 69  350/ 20/ 23 1012.9
SOUTHWEST PASS   1048          270/  6/  6   N/A
NEW CANAL        1048   64 67  360/ 18/ 23 1013.2
SHELL BEACH      1048   66 69  340/ 22/ 27 1013.2

OFFSHORE STATIONS

STATION/POSITION TIME  TEMP    WIND        PRES    WAVE
                       AIR SEA DIR/SP/G            HT/PER
                 (UTC) (F)     (DEG/KT/KT) (MB)    (FT/S)

$$




USA.gov is the U.S. government's official web portal to all federal, state and local government web resources and services.